Location: Dzierzno
(50.6159°N, 19.2852°E)
Time: 07:36:03
(UTC+00:00)

NOAA 6 - Pass Details

Date: 18 November 2025
Orbit: 766 x 782 km, 98.6° (Epoch: 13 December)

Event Time Altitude Azimuth Distance (km) Brightness Sun altitude
Rises 17:18:05 0° 164° (SSE) 3,252 7.1 -22.7°
Reaches altitude 10° 17:20:24 10° 165° (SSE) 2,327 6.4 -23.1°
Maximum altitude 17:25:33 86° 253° (WSW) 787 4.0 -23.9°
Drops below altitude 10° 17:30:43 10° 344° (NNW) 2,335 6.7 -24.7°
Sets 17:33:02 0° 345° (NNW) 3,264 7.4 -25.1°
